Flag for Australia Weather past 2 weeks in Adelaide, South Australia, Australia

Now
52 °F

Clear.


Feels Like: 49 °F
Forecast: 52 / 59 °F
Wind: 7 mph from North

Location: Adelaide Airport

Current Time: Jun 3, 2015 at 7:10:50 PM

Latest Report: Jun 3, 2015 at 6:30 PM


Visibility: 10 mi

Pressure: 30.12 "Hg

Humidity: 77%

Dew point: 45 °F

Location of AdelaideLocation

Historic Weather in Adelaide — Graph

°F

Adelaide temperature yesterday

Maximum temperature yesterday: 57 °F (at 12:30 PM)
Minimum temperature yesterday: 39 °F (at 7:00 AM)
Average temperature yesterday: 47 °F

Past Weeks' High & Low Weather Summary

 TemperatureHumidityPressure
High68 °F (May 26, 11:30 AM)100% (May 22, 2:00 AM)30.48 "Hg (May 22, 2:00 AM)
Low39 °F (May 23, 3:30 AM)36% (Jun 2, 12:30 PM)29.77 "Hg (May 19, 5:30 PM)
Average54 °F74%30.24 "Hg
* Reported May 19 5:30 PM — Jun 3 5:30 PM, Adelaide, Weather by CustomWeather, © 2015

Note: Actual official high and low records may vary slightly from our data, if they occured in-between our weather recording intervals... More about our weather records

Advertising

Adelaide weather history for previous 24 hours

 ConditionsComfort  
Time TempWeatherWind HumidityBarometerVisibility
5:30 PM
Wed, Jun 3
55 °FPassing clouds.7 mph63%30.12 "HgN/A
5:00 PM57 °FPassing clouds.8 mph59%30.12 "HgN/A
4:30 PM59 °FPassing clouds.9 mph51%30.12 "HgN/A
4:00 PM59 °FPassing clouds.10 mph51%30.12 "HgN/A
3:30 PM61 °FSunny.10 mph48%30.12 "Hg10 mi
3:00 PM61 °FSunny.13 mph42%30.12 "Hg10 mi
2:30 PM61 °FSunny.15 mph39%30.12 "Hg10 mi
2:00 PM59 °FSunny.10 mph45%30.15 "Hg10 mi
1:30 PM61 °FSunny.10 mph42%30.15 "Hg10 mi
1:00 PM57 °FSunny.12 mph48%30.15 "Hg10 mi
12:30 PM57 °FSunny.10 mph48%30.18 "Hg10 mi
12:00 PM57 °FSunny.12 mph44%30.18 "Hg10 mi
11:30 AM57 °FSunny.12 mph44%30.21 "Hg10 mi
10:30 AM54 °FSunny.15 mph44%30.24 "Hg10 mi
10:00 AM54 °FSunny.13 mph44%30.24 "Hg10 mi
9:30 AM54 °FSunny.10 mph44%30.24 "Hg10 mi
9:00 AM52 °FSunny.10 mph50%30.24 "Hg10 mi
8:30 AM50 °FSunny.10 mph50%30.24 "Hg10 mi
8:00 AM48 °FSunny.10 mph54%30.21 "Hg10 mi
7:30 AM46 °FSunny.10 mph57%30.21 "Hg10 mi
7:00 AM46 °FSunny.10 mph53%30.21 "Hg10 mi
6:30 AM46 °FClear.10 mph57%30.21 "Hg10 mi
6:00 AM46 °FClear.10 mph57%30.21 "Hg10 mi
5:30 AM46 °FClear.9 mph57%30.21 "Hg10 mi
5:00 AM46 °FClear.10 mph57%30.21 "Hg10 mi
4:30 AM46 °FClear.9 mph57%30.21 "Hg10 mi
4:00 AM46 °FClear.9 mph57%30.24 "Hg10 mi
3:30 AM45 °FClear.9 mph61%30.24 "Hg10 mi
3:00 AM45 °FClear.9 mph61%30.24 "Hg10 mi
2:30 AM43 °FClear.8 mph71%30.24 "Hg10 mi
2:00 AM43 °FClear.6 mph71%30.24 "Hg10 mi
1:30 AM41 °FClear.6 mph76%30.24 "Hg10 mi
12:30 AM43 °FClear.5 mph71%30.27 "Hg10 mi
12:00 AM43 °FClear.3 mph71%30.27 "Hg10 mi
11:30 PM
Tue, Jun 2
43 °FClear.6 mph76%30.27 "Hg10 mi
11:00 PM43 °FClear.3 mph71%30.27 "Hg10 mi
10:30 PM41 °FClear.6 mph81%30.27 "Hg10 mi
10:00 PM43 °FClear.7 mph71%30.27 "Hg10 mi
9:30 PM41 °FClear.7 mph81%30.27 "Hg10 mi
9:00 PM43 °FClear.8 mph76%30.27 "Hg10 mi
8:30 PM45 °FClear.5 mph71%30.30 "Hg10 mi
8:00 PM46 °FClear.3 mph66%30.30 "Hg10 mi
7:30 PM46 °FClear.6 mph71%30.30 "Hg10 mi
7:00 PM46 °FClear.6 mph71%30.30 "Hg10 mi
Weather by CustomWeather, © 2015

See weather overviewHow to use our weather pages